Location: Couloutre
(47.4081°N, 3.2259°E)
Time: 04:00:33
(UTC+00:00)

Cosmos 1937 Rocket - Pass Details

Date: 27 February 2020
Orbit: 747 x 780 km, 74.0° (Epoch: 29 March)

Event Time Altitude Azimuth Distance (km) Brightness Sun altitude
Rises 18:04:32 0° 342° (NNW) 3,256 6.9 -6.9°
Reaches altitude 10° 18:07:07 10° 351° (N) 2,320 6.1 -7.4°
Maximum altitude 18:11:58 36° 58° (ENE) 1,196 4.1 -8.2°
Drops below altitude 10° 18:16:44 10° 125° (SE) 2,286 5.5 -9.0°
Enters shadow 18:19:02 - 133° (SE) 3,118 6.2 -9.4°
